DMSP 5D-3 F18 (USA 210)

Last updated on Thu Oct 30 2025 00:02:23 GMT+0000 (Coordinated Universal Time)

1 35951U 09057A 25302.52391155 .00000316 00000+0 18692-3 0 9995 2 35951 98.8782 279.1575 0010815 181.1583 178.9567 14.14732461826973
UTC large
Height (km)
Speed (km/s)
/
Latitude / Longitude
Inclination (degrees)
Orbital Period (minutes)
Azimuth
Elevation
Range (km)
Doppler Factor

Next 0 passes for location: London (51.5072 / 0.1276)

Sorry there are no passes over London.